[Iaude] MPEC V181: 2023 VE6 [a=2.06,e=0.53,i=7.3,H=27.3]
    mpec at marsden.cfa.harvard.edu 
    mpec at marsden.cfa.harvard.edu
       
    Fri Nov 10 16:05:55 EST 2023
    
    
  
M.P.E.C. 2023-V181                            Issued 2023 November 10, 21:04 UT
     The Minor Planet Electronic Circulars contain information on unusual
         minor planets, routine data on comets and natural satellites,
         and occasional editorial announcements.  They are published
    on behalf of Division F of the International Astronomical Union by the
          Minor Planet Center, Smithsonian Astrophysical Observatory,
                          Cambridge, MA 02138, U.S.A.
			  
             Prepared using the Tamkin Foundation Computer Network
                              MPC at CFA.HARVARD.EDU
            URL https://www.minorplanetcenter.net/    ISSN 1523-6714
                                    2023 VE6                                    
Observations:
     K23V06E  C2023 11 09.31911300 59 29.537+05 22 41.73         16.78GVEV181F52
     K23V06E  C2023 11 09.34391901 05 09.322+05 09 27.92               VEV181F52
     K23V06E*1C2023 11 10.37054803 55 32.491-02 08 39.30         17.46GVEV181703
     K23V06E 1C2023 11 10.37593203 56 01.698-02 09 57.20         17.44GVEV181703
     K23V06E 1C2023 11 10.38670603 56 59.539-02 12 35.86         17.54GVEV181703
     K23V06E mC2023 11 10.40633603 58 44.029-02 17 17.84         17.79GVEV181I52
     K23V06E mC2023 11 10.40649503 58 44.864-02 17 20.11         17.89GVEV181I52
     K23V06E mC2023 11 10.40665303 58 45.685-02 17 22.27         17.63GVEV181I52
     K23V06E mC2023 11 10.40681103 58 46.528-02 17 24.40         17.55GVEV181I52
     K23V06E mC2023 11 10.43793204 01 28.229-02 24 36.04         17.80GVEV181I52
     K23V06E mC2023 11 10.43809404 01 29.078-02 24 38.05         17.90GVEV181I52
     K23V06E mC2023 11 10.43825204 01 29.881-02 24 40.28         17.89GVEV181I52
     K23V06E mC2023 11 10.43841104 01 30.680-02 24 42.44         17.66GVEV181I52
     K23V06E KC2023 11 10.47951304 06 08.93 -02 12 03.1          17.6 GVEV181474
     K23V06E mC2023 11 10.47980904 04 59.761-02 33 50.69         17.66GVEV181I52
     K23V06E KC2023 11 10.47995004 06 11.09 -02 12 09.2          17.8 GVEV181474
     K23V06E mC2023 11 10.47996904 05 00.568-02 33 52.88         17.64GVEV181I52
     K23V06E mC2023 11 10.48012704 05 01.381-02 33 54.76         17.84GVEV181I52
     K23V06E mC2023 11 10.48028504 05 02.152-02 33 56.84         17.75GVEV181I52
     K23V06E KC2023 11 10.48038504 06 13.22 -02 12 15.1          18.0 GVEV181474
     K23V06E KC2023 11 10.48060304 06 14.28 -02 12 18.1          17.9 GVEV181474
     K23V06E KC2023 11 10.60192904 15 30.82 -02 38 22.5          18.1 GVEV181474
     K23V06E KC2023 11 10.60236404 15 32.70 -02 38 28.0          17.7 GVEV181474
     K23V06E KC2023 11 10.60280004 15 34.58 -02 38 33.2          18.1 GVEV181474
     K23V06E KC2023 11 10.60323504 15 36.45 -02 38 38.5          17.9 GVEV181474
     K23V06E KC2023 11 10.60366904 15 38.33 -02 38 43.7          17.6 GVEV181474
Observer details:
474 Mount John Observatory, Lake Tekapo.  Observers A. C. Gilmore, P. M.
    Kilmartin.  Measurer P. M. Kilmartin.  1.0-m f/7.7 reflector + CCD.
703 Catalina Sky Survey.  Observer R. A. Kowalski.  Measurers E. C. Beshore,
    D. Fay, J. B. Fazekas, D. C. Fuls, A. R. Gibbs, A. D. Grauer, H. Groeller,
    J. K. Hogan, R. A. Kowalski, S. M. Larson, G. J. Leonard, D. Rankin, R. L.
    Seaman, F. C. Shelly, K. W. Wierzchos.  0.68-m Schmidt + 10K CCD.
F52 Pan-STARRS 2, Haleakala.  Observers J. Bulger, T. Lowe, P. Minguez, A.
    Schultz, I. Smith.  Measurers K. Chambers, T. de Boer, J. Fairlamb, H.
    Gao, M. Huber, C.-C. Lin, E. Magnier, Y. Ramanjooloo, R. Wainscoat, R.
    Weryk.  1.8-m Ritchey-Chretien + CCD.
I52 Steward Observatory, Mt. Lemmon Station.  Observer H. Groeller.  Measurers
    E. C. Beshore, D. Fay, J. B. Fazekas, D. C. Fuls, A. R. Gibbs, A. D.
    Grauer, H. Groeller, J. K. Hogan, R. A. Kowalski, S. M. Larson, G. J.
    Leonard, D. Rankin, R. L. Seaman, F. C. Shelly, K. W. Wierzchos.  1.0-m
    prime focus + CCD.
Orbital elements:
2023 VE6                                                 Earth MOID = 0.0027 AU
Epoch 2023 Sept. 13.0 TT = JDT 2460200.5                Bell                    
M 346.05189              (2000.0)            P               Q                  
n   0.33275944     Peri.  160.80913     +0.88949909     -0.44760895             
a   2.0624454      Node   226.13733     +0.40080857     +0.86083970             
e   0.5268673      Incl.    7.31943     +0.21941710     +0.24207693             
P   2.96           H   27.32          G   0.15           U   6                  
Residuals in seconds of arc
231109 F52  0.1-  0.0     231110 I52  0.1-  0.1-    231110 I52  0.0   0.0
231109 F52  0.1+  0.1-    231110 I52  0.2+  0.0     231110 474  0.2+  0.0
231110 703  0.7-  0.6+    231110 I52  0.0   0.0     231110 474  0.1+  0.0
231110 703  0.6-  2.0+    231110 I52  0.2-  0.0     231110 474  0.2-  0.5+
231110 703 (3.0-  0.5+)   231110 474  0.0   0.1-    231110 474  0.1-  0.2+
231110 I52  0.2-  0.1-    231110 I52  0.3-  0.0     231110 474  0.1-  0.2+
231110 I52  0.2-  0.1-    231110 474  0.2+  0.1-    231110 474  0.2-  0.1+
231110 I52  0.4-  0.0     231110 I52  0.2-  0.2-    231110 474  0.0   0.2+
231110 I52  0.2-  0.1+    231110 I52  0.2+  0.0
Ephemeris:
2023 VE6                 a,e,i = 2.06, 0.53, 7                   q = 0.9758
Date    TT    R. A. (2000) Decl.     Delta      r    Elong.  Phase     V
2023 10 11    18 31 01.3 +07 25 26   0.1478  0.9915    83.0    88.5    26.3
...
2023 10 26    18 44 00.3 +07 56 26   0.07415 0.9759    73.6   102.3    25.4
...
2023 11 03    19 05 16.9 +08 34 31   0.03293 0.9825    72.0   106.1    23.8
...
2023 11 09    23 42 38.0 +07 57 45   0.0051010.9942   132.6    47.2    17.6
2023 11 10    03 11 56.4 -00 02 28   0.0064360.9967   162.7    17.2    17.3
2023 11 11    04 41 01.2 -03 52 28   0.01058 0.9992   147.8    31.9    18.8
...
2023 11 17    06 04 06.8 -06 47 37   0.04115 1.0177   133.5    44.8    22.1
...
2023 11 25    06 15 33.4 -06 44 30   0.08335 1.0497   136.9    39.9    23.6
...
2023 12 10    06 14 26.0 -05 08 58   0.1662  1.1283   147.3    28.2    24.9
M. P. C. Staff               (C) Copyright 2023 MPC           M.P.E.C. 2023-V181
    
    
More information about the Iaude
mailing list